TUI277Y TNCC-TBPB

Flight info

Callsign TUI277Y
Flight time 1h 29m
Altitude 37000
Route BONAX1K BONAX DCT LRS DCT MASPA DCT CAI DCT AMULA
Aircraft A320/M-SDE3FGHIRWY/LB1

Departure

Time 2026-05-09 06:07
Airport Hato International Airport (TNCC)

Arrival

Time 2026-05-09 07:36
Airport Grantley Adams International Airport (TBPB)
Time Latitude Longitude Altitude Speed Heading
2026-05-09 05:45 12.18553 -68.95732 42 ft 0 kts 192°
2026-05-09 06:00 12.18563 -68.95730 43 ft 4 kts 193°
2026-05-09 06:00 12.18590 -68.95723 41 ft 4 kts 196°
2026-05-09 06:00 12.18615 -68.95714 40 ft 4 kts 202°
2026-05-09 06:01 12.18638 -68.95703 43 ft 4 kts 221°
2026-05-09 06:01 12.18650 -68.95685 39 ft 2 kts 281°
2026-05-09 06:01 12.18649 -68.95679 42 ft 0 kts 282°
2026-05-09 06:03 12.18650 -68.95683 42 ft 4 kts 282°
2026-05-09 06:03 12.18673 -68.95794 43 ft 22 kts 282°
2026-05-09 06:03 12.18705 -68.95938 43 ft 20 kts 283°
2026-05-09 06:03 12.18735 -68.96069 43 ft 18 kts 279°
2026-05-09 06:04 12.18758 -68.96190 43 ft 17 kts 282°
2026-05-09 06:04 12.18782 -68.96298 43 ft 16 kts 282°
2026-05-09 06:04 12.18815 -68.96458 41 ft 31 kts 282°
2026-05-09 06:04 12.18870 -68.96713 39 ft 40 kts 282°
2026-05-09 06:05 12.18930 -68.96994 38 ft 41 kts 282°
2026-05-09 06:05 12.18987 -68.97284 39 ft 42 kts 281°
2026-05-09 06:05 12.19044 -68.97548 39 ft 22 kts 285°
2026-05-09 06:05 12.19132 -68.97598 39 ft 13 kts
2026-05-09 06:06 12.19204 -68.97545 37 ft 14 kts 61°
2026-05-09 06:06 12.19203 -68.97448 40 ft 16 kts 101°
2026-05-09 06:06 12.19143 -68.97156 40 ft 75 kts 102°
2026-05-09 06:06 12.18990 -68.96436 43 ft 129 kts 102°
2026-05-09 06:07 12.18770 -68.95392 42 ft 171 kts 102°
2026-05-09 06:07 12.18499 -68.94130 446 ft 182 kts 101°
2026-05-09 06:07 12.18201 -68.92882 1270 ft 180 kts 103°
2026-05-09 06:07 12.17926 -68.91642 2064 ft 182 kts 104°
2026-05-09 06:08 12.17604 -68.90254 2183 ft 218 kts 101°
2026-05-09 06:08 12.17370 -68.88669 2790 ft 234 kts 97°
2026-05-09 06:08 12.17223 -68.86951 3444 ft 250 kts 94°
2026-05-09 06:08 12.17199 -68.85195 4335 ft 252 kts 89°
2026-05-09 06:09 12.17269 -68.83370 4791 ft 259 kts 87°
2026-05-09 06:09 12.17374 -68.81526 5609 ft 261 kts 86°
2026-05-09 06:09 12.17484 -68.79663 6414 ft 265 kts 87°
2026-05-09 06:09 12.17593 -68.77752 7118 ft 271 kts 87°
2026-05-09 06:10 12.17701 -68.75808 7862 ft 275 kts 87°
2026-05-09 06:10 12.17805 -68.73866 8623 ft 278 kts 87°
2026-05-09 06:10 12.17907 -68.71878 9384 ft 281 kts 86°
2026-05-09 06:10 12.18009 -68.69866 10092 ft 286 kts 86°
2026-05-09 06:11 12.18113 -68.67773 10400 ft 306 kts 86°
2026-05-09 06:11 12.18227 -68.65524 10549 ft 328 kts 86°
2026-05-09 06:11 12.18348 -68.63114 10665 ft 350 kts 86°
2026-05-09 06:11 12.18476 -68.60559 10916 ft 366 kts 86°
2026-05-09 06:12 12.18605 -68.57938 11452 ft 371 kts 86°
2026-05-09 06:12 12.18732 -68.55298 12075 ft 373 kts 86°
2026-05-09 06:12 12.18859 -68.52636 12685 ft 376 kts 86°
2026-05-09 06:12 12.18987 -68.49950 13294 ft 379 kts 86°
2026-05-09 06:13 12.19119 -68.47246 13866 ft 383 kts 86°
2026-05-09 06:13 12.19252 -68.44521 14383 ft 385 kts 86°
2026-05-09 06:13 12.19384 -68.41777 14907 ft 388 kts 86°
2026-05-09 06:13 12.19516 -68.39015 15416 ft 391 kts 86°
2026-05-09 06:14 12.19651 -68.36229 15927 ft 393 kts 86°
2026-05-09 06:14 12.19787 -68.33424 16416 ft 396 kts 87°
2026-05-09 06:14 12.19921 -68.30597 16910 ft 399 kts 87°
2026-05-09 06:14 12.20054 -68.27797 17374 ft 402 kts 87°
2026-05-09 06:15 12.20191 -68.24926 17858 ft 404 kts 87°
2026-05-09 06:15 12.20329 -68.22051 18298 ft 407 kts 87°
2026-05-09 06:15 12.20465 -68.19149 18678 ft 409 kts 87°
2026-05-09 06:15 12.20601 -68.16231 19063 ft 412 kts 87°
2026-05-09 06:16 12.20738 -68.13303 19439 ft 414 kts 87°
2026-05-09 06:16 12.20875 -68.10355 19811 ft 416 kts 86°
2026-05-09 06:16 12.21012 -68.07398 20172 ft 418 kts 86°
2026-05-09 06:16 12.21154 -68.04420 20526 ft 420 kts 86°
2026-05-09 06:17 12.21297 -68.01433 20877 ft 421 kts 86°
2026-05-09 06:17 12.21441 -67.98431 21227 ft 423 kts 86°
2026-05-09 06:17 12.21582 -67.95424 21565 ft 425 kts 86°
2026-05-09 06:17 12.21720 -67.92440 21894 ft 426 kts 86°
2026-05-09 06:18 12.21859 -67.89404 22215 ft 428 kts 86°
2026-05-09 06:18 12.22000 -67.86360 22530 ft 429 kts 86°
2026-05-09 06:18 12.22140 -67.83311 22835 ft 430 kts 85°
2026-05-09 06:18 12.22280 -67.80250 23128 ft 432 kts 85°
2026-05-09 06:19 12.22420 -67.77173 23410 ft 433 kts 85°
2026-05-09 06:19 12.22561 -67.74084 23660 ft 435 kts 85°
2026-05-09 06:19 12.22704 -67.70990 23867 ft 436 kts 85°
2026-05-09 06:19 12.22848 -67.67884 24061 ft 438 kts 85°
2026-05-09 06:20 12.22992 -67.64764 24252 ft 440 kts 85°
2026-05-09 06:20 12.23136 -67.61628 24437 ft 442 kts 85°
2026-05-09 06:20 12.23281 -67.58482 24620 ft 444 kts 85°
2026-05-09 06:20 12.23426 -67.55314 24807 ft 446 kts 85°
2026-05-09 06:21 12.23568 -67.52136 24991 ft 448 kts 85°
2026-05-09 06:21 12.23708 -67.48949 25173 ft 450 kts 85°
2026-05-09 06:21 12.23847 -67.45746 25349 ft 452 kts 85°
2026-05-09 06:21 12.23989 -67.42525 25520 ft 454 kts 85°
2026-05-09 06:22 12.24132 -67.39289 25692 ft 456 kts 85°
2026-05-09 06:22 12.24276 -67.36080 25854 ft 458 kts 85°
2026-05-09 06:22 12.24424 -67.32819 26019 ft 459 kts 85°
2026-05-09 06:22 12.24572 -67.29551 26181 ft 461 kts 85°
2026-05-09 06:23 12.24721 -67.26269 26336 ft 463 kts 85°
2026-05-09 06:23 12.24869 -67.22972 26487 ft 465 kts 85°
2026-05-09 06:23 12.25013 -67.19667 26631 ft 466 kts 85°
2026-05-09 06:23 12.25156 -67.16345 26799 ft 467 kts 85°
2026-05-09 06:24 12.25300 -67.13018 27017 ft 467 kts 85°
2026-05-09 06:24 12.25442 -67.09703 27233 ft 467 kts 85°
2026-05-09 06:24 12.25584 -67.06381 27443 ft 468 kts 85°
2026-05-09 06:24 12.25725 -67.03108 27651 ft 468 kts 85°
2026-05-09 06:25 12.25869 -66.99779 27873 ft 468 kts 85°
2026-05-09 06:25 12.26013 -66.96451 28098 ft 468 kts 85°
2026-05-09 06:25 12.26157 -66.93125 28315 ft 469 kts 85°
2026-05-09 06:25 12.26301 -66.89794 28539 ft 469 kts 85°
2026-05-09 06:26 12.26442 -66.86457 28765 ft 470 kts 85°
2026-05-09 06:26 12.26585 -66.83117 28991 ft 470 kts 85°
2026-05-09 06:26 12.26727 -66.79777 29224 ft 470 kts 85°
2026-05-09 06:26 12.26869 -66.76436 29460 ft 471 kts 85°
2026-05-09 06:27 12.27008 -66.73091 29690 ft 471 kts 85°
2026-05-09 06:27 12.27147 -66.69732 29935 ft 472 kts 85°
2026-05-09 06:27 12.27287 -66.66376 30159 ft 472 kts 85°
2026-05-09 06:27 12.27427 -66.63026 30385 ft 472 kts 85°
2026-05-09 06:28 12.27565 -66.59681 30633 ft 471 kts 85°
2026-05-09 06:28 12.27702 -66.56385 30885 ft 470 kts 85°
2026-05-09 06:28 12.27844 -66.53049 31142 ft 469 kts 85°
2026-05-09 06:28 12.27987 -66.49722 31400 ft 468 kts 85°
2026-05-09 06:29 12.28128 -66.46405 31662 ft 467 kts 85°
2026-05-09 06:29 12.28266 -66.43097 31930 ft 465 kts 85°
2026-05-09 06:29 12.28398 -66.39787 32197 ft 465 kts 85°
2026-05-09 06:29 12.28529 -66.36495 32469 ft 463 kts 85°
2026-05-09 06:30 12.28660 -66.33194 32742 ft 463 kts 85°
2026-05-09 06:30 12.28792 -66.29912 33008 ft 462 kts 85°
2026-05-09 06:30 12.28923 -66.26631 33280 ft 461 kts 84°
2026-05-09 06:30 12.29058 -66.23361 33548 ft 460 kts 84°
2026-05-09 06:31 12.29193 -66.20090 33828 ft 459 kts 84°
2026-05-09 06:31 12.29326 -66.16835 34084 ft 458 kts 84°
2026-05-09 06:31 12.29456 -66.13577 34317 ft 458 kts 84°
2026-05-09 06:31 12.29582 -66.10369 34540 ft 458 kts 84°
2026-05-09 06:32 12.29709 -66.07118 34760 ft 457 kts 84°
2026-05-09 06:32 12.29836 -66.03870 34968 ft 457 kts 84°
2026-05-09 06:32 12.29965 -66.00616 35180 ft 457 kts 84°
2026-05-09 06:33 12.30227 -65.94121 35572 ft 457 kts 84°
2026-05-09 06:33 12.30355 -65.90876 35763 ft 457 kts 84°
2026-05-09 06:33 12.30479 -65.87631 35952 ft 456 kts 84°
2026-05-09 06:34 12.30728 -65.81146 36319 ft 456 kts 84°
2026-05-09 06:34 12.30852 -65.77906 36499 ft 456 kts 84°
2026-05-09 06:34 12.30976 -65.74666 36670 ft 456 kts 84°
2026-05-09 06:34 12.31098 -65.71423 36846 ft 455 kts 84°
2026-05-09 06:35 12.31222 -65.68184 36954 ft 457 kts 84°
2026-05-09 06:35 12.31351 -65.64929 36972 ft 459 kts 84°
2026-05-09 06:35 12.31607 -65.58423 36964 ft 461 kts 84°
2026-05-09 06:36 12.31859 -65.51865 36964 ft 461 kts 84°
2026-05-09 06:36 12.32101 -65.45310 36967 ft 461 kts 84°
2026-05-09 06:37 12.32345 -65.38757 36980 ft 461 kts 84°
2026-05-09 06:37 12.32581 -65.32205 36978 ft 461 kts 84°
2026-05-09 06:38 12.32829 -65.25650 36976 ft 461 kts 84°
2026-05-09 06:38 12.33071 -65.19094 36982 ft 462 kts 84°
2026-05-09 06:39 12.33267 -65.13632 36997 ft 462 kts 84°
2026-05-09 06:39 12.33505 -65.07071 36986 ft 462 kts 84°
2026-05-09 06:40 12.33743 -65.00509 36983 ft 462 kts 84°
2026-05-09 06:40 12.33980 -64.93944 36986 ft 462 kts 84°
2026-05-09 06:41 12.34206 -64.87388 36986 ft 462 kts 84°
2026-05-09 06:41 12.34435 -64.80868 36988 ft 461 kts 84°
2026-05-09 06:42 12.34669 -64.74307 36987 ft 461 kts 84°
2026-05-09 06:42 12.34897 -64.67748 36988 ft 461 kts 84°
2026-05-09 06:43 12.35120 -64.61179 36989 ft 461 kts 84°
2026-05-09 06:43 12.35336 -64.54624 36990 ft 461 kts 84°
2026-05-09 06:44 12.35563 -64.48061 36991 ft 461 kts 84°
2026-05-09 06:44 12.35793 -64.41507 36991 ft 461 kts 83°
2026-05-09 06:45 12.36319 -64.34992 36994 ft 458 kts 79°
2026-05-09 06:45 12.37167 -64.28540 36990 ft 457 kts 78°
2026-05-09 06:46 12.38019 -64.22093 36996 ft 458 kts 78°
2026-05-09 06:46 12.38789 -64.15625 36994 ft 458 kts 79°
2026-05-09 06:47 12.39510 -64.09147 36994 ft 458 kts 79°
2026-05-09 06:47 12.40222 -64.02714 36996 ft 458 kts 79°
2026-05-09 06:48 12.40956 -63.96240 36999 ft 457 kts 79°
2026-05-09 06:48 12.41702 -63.89773 36996 ft 457 kts 79°
2026-05-09 06:49 12.42449 -63.83307 36999 ft 457 kts 79°
2026-05-09 06:49 12.43186 -63.76834 36999 ft 457 kts 79°
2026-05-09 06:50 12.43916 -63.70374 36994 ft 457 kts 79°
2026-05-09 06:50 12.44636 -63.63904 36997 ft 457 kts 79°
2026-05-09 06:51 12.45354 -63.57473 36996 ft 457 kts 79°
2026-05-09 06:51 12.46090 -63.51016 36998 ft 457 kts 79°
2026-05-09 06:52 12.46825 -63.44550 36999 ft 457 kts 79°
2026-05-09 06:52 12.47548 -63.38091 36999 ft 457 kts 79°
2026-05-09 06:53 12.48262 -63.31630 37000 ft 457 kts 79°
2026-05-09 06:53 12.48981 -63.25164 36999 ft 457 kts 79°
2026-05-09 06:54 12.49705 -63.18693 37000 ft 457 kts 79°
2026-05-09 06:54 12.50427 -63.12237 37000 ft 457 kts 79°
2026-05-09 06:55 12.51143 -63.05811 37001 ft 457 kts 79°
2026-05-09 06:55 12.51860 -62.99353 37005 ft 457 kts 79°
2026-05-09 06:56 12.52573 -62.92890 37001 ft 457 kts 79°
2026-05-09 06:56 12.53279 -62.86429 37000 ft 457 kts 79°
2026-05-09 06:57 12.53985 -62.79973 37000 ft 457 kts 79°
2026-05-09 06:57 12.54692 -62.73505 37000 ft 456 kts 79°
2026-05-09 06:58 12.55403 -62.67045 36999 ft 456 kts 80°
2026-05-09 06:58 12.56106 -62.60613 37002 ft 456 kts 80°
2026-05-09 06:59 12.56812 -62.54145 37004 ft 456 kts 80°
2026-05-09 06:59 12.57510 -62.47688 37001 ft 457 kts 80°
2026-05-09 07:00 12.58217 -62.41225 36997 ft 457 kts 80°
2026-05-09 07:00 12.58920 -62.34765 36995 ft 457 kts 80°
2026-05-09 07:01 12.59610 -62.28319 36995 ft 458 kts 80°
2026-05-09 07:01 12.60305 -62.21837 36997 ft 458 kts 80°
2026-05-09 07:02 12.61001 -62.15356 36995 ft 458 kts 80°
2026-05-09 07:02 12.61696 -62.08851 36996 ft 459 kts 81°
2026-05-09 07:03 12.62393 -62.02350 37004 ft 460 kts 81°
2026-05-09 07:03 12.63096 -61.95837 36997 ft 460 kts 81°
2026-05-09 07:04 12.63790 -61.89318 36991 ft 461 kts 81°
2026-05-09 07:04 12.64477 -61.82788 36985 ft 461 kts 81°
2026-05-09 07:05 12.65158 -61.76290 36989 ft 462 kts 81°
2026-05-09 07:05 12.65853 -61.69746 36989 ft 463 kts 81°
2026-05-09 07:06 12.66549 -61.63179 36989 ft 463 kts 81°
2026-05-09 07:06 12.67246 -61.56620 36985 ft 464 kts 81°
2026-05-09 07:07 12.67937 -61.50043 36984 ft 465 kts 82°
2026-05-09 07:07 12.68626 -61.43462 36989 ft 465 kts 82°
2026-05-09 07:08 12.69306 -61.36870 36986 ft 466 kts 82°
2026-05-09 07:08 12.70366 -61.30342 36989 ft 464 kts 76°
2026-05-09 07:09 12.71721 -61.23869 36988 ft 465 kts 76°
2026-05-09 07:09 12.73065 -61.17392 36991 ft 465 kts 76°
2026-05-09 07:10 12.74404 -61.10900 36992 ft 465 kts 76°
2026-05-09 07:10 12.75738 -61.04459 36997 ft 465 kts 76°
2026-05-09 07:11 12.77082 -60.97975 36995 ft 465 kts 76°
2026-05-09 07:11 12.78422 -60.91491 36998 ft 465 kts 76°
2026-05-09 07:12 12.79764 -60.85001 36992 ft 466 kts 76°
2026-05-09 07:12 12.80437 -60.81745 36572 ft 468 kts 76°
2026-05-09 07:12 12.81117 -60.78456 35497 ft 476 kts 76°
2026-05-09 07:13 12.81805 -60.75116 34509 ft 481 kts 77°
2026-05-09 07:13 12.82120 -60.71711 33632 ft 480 kts 92°
2026-05-09 07:13 12.81552 -60.68360 32509 ft 478 kts 108°
2026-05-09 07:13 12.80111 -60.65307 31434 ft 478 kts 123°
2026-05-09 07:14 12.77898 -60.62770 30413 ft 480 kts 139°
2026-05-09 07:14 12.75068 -60.60937 29282 ft 484 kts 155°
2026-05-09 07:14 12.71821 -60.59951 28134 ft 489 kts 171°
2026-05-09 07:14 12.68404 -60.59897 27032 ft 496 kts 187°
2026-05-09 07:15 12.65086 -60.60837 25974 ft 497 kts 205°
2026-05-09 07:15 12.62203 -60.62781 24954 ft 498 kts 223°
2026-05-09 07:15 12.60056 -60.65499 23979 ft 499 kts 241°
2026-05-09 07:15 12.58799 -60.68781 22915 ft 495 kts 259°
2026-05-09 07:16 12.58566 -60.72260 21799 ft 489 kts 277°
2026-05-09 07:16 12.59350 -60.75608 20722 ft 482 kts 294°
2026-05-09 07:16 12.61057 -60.78513 19862 ft 472 kts 312°
2026-05-09 07:16 12.63437 -60.80749 19096 ft 460 kts 327°
2026-05-09 07:17 12.66265 -60.82189 18340 ft 451 kts 343°
2026-05-09 07:17 12.69319 -60.82755 17498 ft 443 kts 359°
2026-05-09 07:17 12.72352 -60.82438 16684 ft 438 kts 14°
2026-05-09 07:17 12.75166 -60.81301 15880 ft 434 kts 29°
2026-05-09 07:18 12.77566 -60.79450 15090 ft 431 kts 44°
2026-05-09 07:18 12.79419 -60.77024 14085 ft 436 kts 60°
2026-05-09 07:18 12.80688 -60.74272 13390 ft 431 kts 65°
2026-05-09 07:18 12.81922 -60.71497 12652 ft 425 kts 65°
2026-05-09 07:19 12.82979 -60.68689 11952 ft 419 kts 72°
2026-05-09 07:19 12.83673 -60.65802 11255 ft 414 kts 78°
2026-05-09 07:19 12.84237 -60.62937 10561 ft 408 kts 78°
2026-05-09 07:19 12.84787 -60.60118 10089 ft 397 kts 78°
2026-05-09 07:20 12.85318 -60.57375 9882 ft 384 kts 78°
2026-05-09 07:20 12.85825 -60.54757 9754 ft 364 kts 77°
2026-05-09 07:20 12.86308 -60.52276 9625 ft 346 kts 78°
2026-05-09 07:20 12.86763 -60.49948 9506 ft 329 kts 77°
2026-05-09 07:21 12.87208 -60.47670 9372 ft 314 kts 78°
2026-05-09 07:21 12.87627 -60.45520 9246 ft 301 kts 77°
2026-05-09 07:21 12.88027 -60.43464 9116 ft 289 kts 78°
2026-05-09 07:21 12.88410 -60.41493 8986 ft 283 kts 77°
2026-05-09 07:22 12.88791 -60.39517 8870 ft 282 kts 78°
2026-05-09 07:22 12.89174 -60.37545 8745 ft 280 kts 78°
2026-05-09 07:22 12.89557 -60.35589 8621 ft 279 kts 77°
2026-05-09 07:22 12.89940 -60.33639 8494 ft 279 kts 77°
2026-05-09 07:23 12.90320 -60.31696 8374 ft 278 kts 78°
2026-05-09 07:23 12.90696 -60.29754 8249 ft 277 kts 78°
2026-05-09 07:23 12.91067 -60.27817 8126 ft 277 kts 78°
2026-05-09 07:23 12.91435 -60.25883 8006 ft 276 kts 78°
2026-05-09 07:24 12.91678 -60.24609 7926 ft 275 kts 78°
2026-05-09 07:24 12.92046 -60.22686 7806 ft 274 kts 78°
2026-05-09 07:24 12.92417 -60.20767 7686 ft 274 kts 78°
2026-05-09 07:24 12.92908 -60.18237 7524 ft 273 kts 78°
2026-05-09 07:25 12.93278 -60.16327 7402 ft 272 kts 78°
2026-05-09 07:25 12.93521 -60.15070 7310 ft 272 kts 78°
2026-05-09 07:25 12.93888 -60.13170 7205 ft 271 kts 78°
2026-05-09 07:25 12.94253 -60.11274 7086 ft 270 kts 78°
2026-05-09 07:26 12.94614 -60.09385 6961 ft 270 kts 78°
2026-05-09 07:26 12.94977 -60.07499 6854 ft 269 kts 78°
2026-05-09 07:26 12.95341 -60.05617 6735 ft 268 kts 78°
2026-05-09 07:26 12.95704 -60.03740 6620 ft 268 kts 78°
2026-05-09 07:27 12.96065 -60.01873 6499 ft 267 kts 78°
2026-05-09 07:27 12.96426 -60.00004 6381 ft 267 kts 78°
2026-05-09 07:27 12.96782 -59.98141 6256 ft 266 kts 78°
2026-05-09 07:27 12.97139 -59.96281 6137 ft 266 kts 79°
2026-05-09 07:28 12.97494 -59.94425 6008 ft 265 kts 78°
2026-05-09 07:28 12.97851 -59.92574 5886 ft 264 kts 78°
2026-05-09 07:28 12.98209 -59.90728 5762 ft 264 kts 78°
2026-05-09 07:28 12.98564 -59.88883 5639 ft 264 kts 78°
2026-05-09 07:29 12.98916 -59.87044 5516 ft 262 kts 78°
2026-05-09 07:29 12.99267 -59.85204 5249 ft 265 kts 78°
2026-05-09 07:29 12.99612 -59.83395 5132 ft 250 kts 79°
2026-05-09 07:29 12.99934 -59.81701 5075 ft 234 kts 79°
2026-05-09 07:30 13.00039 -59.80089 5023 ft 220 kts 86°
2026-05-09 07:30 13.00246 -59.78606 4935 ft 217 kts 78°
2026-05-09 07:30 13.00594 -59.77100 4862 ft 217 kts 76°
2026-05-09 07:30 13.00960 -59.75620 4789 ft 209 kts 76°
2026-05-09 07:31 13.01308 -59.74215 4610 ft 203 kts 76°
2026-05-09 07:31 13.01657 -59.72804 4367 ft 200 kts 76°
2026-05-09 07:31 13.01993 -59.71442 4114 ft 199 kts 76°
2026-05-09 07:31 13.02331 -59.70071 3857 ft 198 kts 76°
2026-05-09 07:32 13.02667 -59.68705 3603 ft 197 kts 76°
2026-05-09 07:32 13.03001 -59.67353 3357 ft 195 kts 76°
2026-05-09 07:32 13.03332 -59.66010 3105 ft 194 kts 76°
2026-05-09 07:32 13.03657 -59.64689 2869 ft 188 kts 76°
2026-05-09 07:33 13.03974 -59.63404 2614 ft 183 kts 76°
2026-05-09 07:33 13.04581 -59.60938 2144 ft 174 kts 76°
2026-05-09 07:33 13.04869 -59.59768 1922 ft 163 kts 76°
2026-05-09 07:34 13.05142 -59.58685 1669 ft 152 kts 77°
2026-05-09 07:34 13.05394 -59.57677 1502 ft 138 kts 78°
2026-05-09 07:34 13.05626 -59.56744 1430 ft 133 kts 77°
2026-05-09 07:34 13.05841 -59.55821 1222 ft 134 kts 78°
2026-05-09 07:35 13.06072 -59.54898 1054 ft 133 kts 77°
2026-05-09 07:35 13.06302 -59.53991 919 ft 132 kts 77°
2026-05-09 07:35 13.06531 -59.53086 772 ft 130 kts 79°
2026-05-09 07:35 13.06737 -59.52174 534 ft 134 kts 79°
2026-05-09 07:36 13.06963 -59.51239 357 ft 135 kts 78°
2026-05-09 07:36 13.07198 -59.50319 201 ft 132 kts 78°
2026-05-09 07:36 13.07378 -59.49549 176 ft 89 kts 76°
2026-05-09 07:36 13.07478 -59.49137 176 ft 31 kts 77°
2026-05-09 07:37 13.07578 -59.48947 175 ft 29 kts 47°
2026-05-09 07:37 13.07699 -59.48817 177 ft 22 kts 42°
2026-05-09 07:37 13.07790 -59.48795 178 ft 13 kts 342°
2026-05-09 07:37 13.07869 -59.48819 178 ft 10 kts 345°
2026-05-09 07:38 13.07877 -59.48821 178 ft 0 kts 345°